Location: Lynch Observatory
(39.9540°N, 75.1861°W)
Time: 20:15:18
(UTC-04:00)

Hubble Space Telescope - Visible Passes

Search period start: 18 July 2018 00:00
Search period end: 28 July 2018 00:00
Orbit: 537 x 541 km, 28.5° (Epoch: 18 July)

Date Brightness Start Highest point End Pass type
(mag) Time Alt. Az. Time Alt. Az. Time Alt. Az.
18 Jul 2.9 03:56:28 13° SSE 03:56:28 13° SSE 03:57:48 10° SE visible
19 Jul 3.0 03:46:41 13° SSE 03:46:41 13° SSE 03:47:33 10° SE visible
20 Jul 3.2 03:36:58 11° SE 03:36:58 11° SE 03:37:14 10° SE visible
20 Jul 2.7 05:12:52 10° SW 05:15:11 15° S 05:17:31 10° SSE visible
21 Jul 2.7 05:02:44 10° SW 05:04:43 13° S 05:06:47 10° SSE visible
22 Jul 2.8 04:53:17 11° SSW 04:54:14 12° SSW 04:55:53 10° S visible
23 Jul 2.9 04:44:00 11° SSW 04:44:00 11° SSW 04:44:37 10° S visible
